Wind_Speed
7 6 6 6 5 5 4 4 3 3 5 7 6 6 8 9 7 6 7 9 9 8 8 8 7 7 7 6 7 7 7 8 8 9 10 11 12 13 14 15 16 16 17 17 17 17 18 18 19 18 18 18 18 18 18 18 17 17 16 16 16 16
7 7 7 6 6 6 5 5 5 5 5 7 7 8 10 10 8 7 6 7 8 8 8 9 8 8 7 7 8 8 8 9 10 10 11 11 12 14 15 15 16 17 17 18 18 18 18 19 18 18 18 17 17 18 18 18 18 18 18 18 18 18
7 7 7 7 8 8 7 7 7 6 5 6 7 8 10 11 10 8 6 6 7 8 9 9 9 9 9 9 9 9 10 10 11 11 11 12 13 14 15 15 16 17 17 18 18 18 19 19 19 18 17 17 16 17 18 18 19 19 19 19 19 19
7 7 7 8 9 9 9 8 7 7 6 6 7 9 10 11 10 9 8 8 8 7 8 9 10 9 9 9 9 10 10 10 11 11 11 11 12 13 14 14 15 16 16 17 17 17 18 18 18 18 18 17 17 17 17 18 18 19 19 19 19 18
7 7 7 7 8 7 9 9 7 8 8 7 8 9 11 12 11 10 10 10 9 8 8 8 8 8 8 7 8 9 9 9 9 9 9 9 9 10 11 11 11 12 13 14 15 15 16 17 17 18 18 18 17 17 17 17 17 17 18 18 18 17
6 6 6 7 6 6 8 9 8 8 8 8 8 8 10 12 11 11 11 11 10 9 8 7 6 6 6 6 6 6 7 7 7 7 8 8 7 7 7 7 7 8 9 11 12 13 14 15 16 17 18 17 17 17 16 16 16 16 16 16 16 15
2 2 4 5 4 4 6 7 6 5 7 8 7 8 10 11 11 11 11 11 10 10 8 6 6 6 6 6 5 5 5 6 6 7 7 7 7 6 6 5 6 6 7 8 10 12 13 14 15 15 16 16 16 16 15 15 15 15 15 15 15 14
2 2 3 2 1 1 4 6 6 5 7 6 5 9 10 10 10 11 10 11 11 10 9 8 8 7 7 6 6 6 6 6 7 7 7 7 7 7 6 6 6 6 7 7 8 9 11 12 13 14 13 14 14 14 14 14 14 14 14 15 15 14
0 1 3 4 3 4 6 7 8 8 8 4 4 8 9 9 10 9 9 11 11 10 10 10 9 9 8 8 7 7 7 7 7 8 8 8 9 9 8 8 9 9 9 9 8 8 8 10 12 13 13 13 14 14 14 14 14 14 15 15 15 15
1 1 1 3 5 5 5 7 8 8 7 3 4 7 8 9 9 9 9 10 10 10 10 10 9 9 9 8 8 8 8 8 8 9 9 10 11 11 11 11 12 12 12 11 10 9 8 9 11 12 12 12 13 14 14 14 14 14 14 16 16 16
2 1 1 2 5 7 7 6 7 8 9 7 7 8 9 10 11 10 10 10 9 10 10 9 9 9 8 8 8 8 9 9 10 10 10 11 12 12 13 13 14 14 14 13 11 10 10 10 10 11 11 11 12 13 14 14 14 13 14 15 16 16
3 1 1 2 4 7 9 9 9 10 12 12 11 10 9 9 10 10 9 8 8 8 8 9 8 8 8 8 8 9 9 10 11 11 11 12 12 13 14 14 15 15 14 13 13 12 11 10 11 11 12 12 13 14 15 15 14 14 14 14 15 16
3 2 2 3 4 6 9 10 10 11 12 13 11 9 8 8 8 8 7 7 7 7 8 8 8 8 8 8 9 9 9 10 10 11 11 12 13 14 14 15 15 15 15 15 15 14 13 12 12 13 13 14 15 15 16 16 15 14 14 15 16 17
3 3 3 4 4 6 8 10 10 10 10 10 9 8 7 7 6 6 7 7 8 8 8 8 8 9 9 10 10 10 10 10 11 11 11 12 12 13 14 15 15 16 17 17 17 16 15 14 14 15 15 15 16 17 17 17 17 16 16 17 17 18
5 4 4 5 5 5 8 9 9 9 8 8 7 6 6 6 6 7 7 7 8 9 9 9 9 10 11 11 12 12 12 12 12 12 12 12 13 13 14 14 15 16 17 18 19 19 18 17 17 17 17 16 16 18 18 18 18 18 18 19 19 20
7 7 6 5 5 5 6 8 9 8 8 7 7 6 6 6 6 6 7 7 8 9 9 10 10 11 12 13 13 12 13 13 13 13 13 14 14 14 15 15 16 16 17 19 19 20 21 21 20 20 18 17 17 18 19 19 19 20 20 20 21 22
9 9 8 7 6 6 6 7 7 7 7 7 7 7 7 7 7 7 8 8 9 9 10 10 11 12 13 13 12 12 12 13 13 13 14 14 15 16 16 17 17 18 19 20 20 21 22 23 23 22 21 20 19 19 20 20 20 20 21 22 23 25
11 11 9 8 7 7 6 6 6 6 6 7 7 8 8 9 9 9 10 10 10 10 11 11 11 12 12 13 13 13 14 14 14 15 15 16 17 17 18 18 19 20 20 21 21 22 23 24 24 24 24 24 23 23 22 22 22 22 22 23 24 26
13 12 10 9 8 7 6 6 6 6 6 8 9 9 9 9 9 10 10 11 11 11 11 11 12 12 13 14 15 15 16 17 17 17 18 18 19 19 20 20 21 21 22 23 23 23 24 25 25 25 26 26 27 27 27 27 26 26 25 24 25 27
13 12 11 10 9 8 7 6 6 6 7 9 10 10 10 9 10 10 11 12 12 12 12 12 13 14 15 16 17 18 19 20 20 20 20 21 21 22 22 23 23 23 24 25 25 25 26 27 27 27 28 28 29 30 30 30 30 30 29 28 28 29
13 12 12 11 10 9 7 6 6 7 8 10 10 10 11 11 11 13 14 14 14 14 14 14 15 16 17 18 18 19 20 20 20 20 20 20 21 21 22 23 24 25 26 27 28 28 29 30 29 29 30 30 31 32 32 32 33 33 32 32 31 32
12 11 11 10 9 8 6 6 7 8 9 11 11 11 11 12 13 14 15 15 15 15 15 16 17 18 18 18 19 18 18 18 17 17 17 17 17 18 19 20 21 23 24 25 27 29 30 31 32 31 31 32 32 33 33 34 34 34 34 34 34 34
10 9 9 8 8 7 7 7 8 9 9 10 11 12 12 13 13 15 16 16 16 16 16 17 18 18 18 17 17 16 16 16 16 16 16 16 17 17 18 18 19 20 21 22 24 26 28 30 32 32 32 32 33 34 34 35 35 35 35 35 35 36
8 7 7 7 8 8 8 8 9 9 9 10 11 13 14 14 14 15 16 16 16 16 16 17 17 17 16 16 16 16 16 17 17 18 18 18 18 18 19 19 19 20 20 21 22 23 25 27 29 30 31 31 32 33 34 35 35 36 36 36 36 37
9 8 8 8 9 8 8 9 9 9 10 11 12 13 14 14 14 15 15 15 15 15 15 16 15 15 15 15 16 17 17 18 18 19 19 20 20 20 21 21 21 21 22 22 23 23 24 25 26 28 29 30 30 30 32 34 35 36 36 36 37 37
10 9 10 10 9 9 9 9 9 10 10 11 11 12 12 13 13 13 13 13 13 13 14 14 15 15 15 16 18 19 19 20 20 20 21 21 21 22 22 23 23 23 24 24 24 25 25 26 27 28 28 29 29 29 30 31 32 34 36 36 37 38
11 10 11 11 10 9 9 8 9 10 10 10 10 10 10 11 11 11 11 11 11 12 13 14 16 16 17 18 19 19 20 20 20 21 21 22 22 23 23 24 24 25 25 26 26 26 27 27 28 29 29 29 29 29 30 29 30 32 34 35 37 37
11 11 12 11 10 10 9 9 9 9 9 8 8 9 10 11 11 11 11 11 11 11 13 14 16 17 18 18 19 19 19 19 19 20 21 21 22 23 23 23 24 25 25 26 27 28 28 29 29 30 30 30 30 30 30 30 30 31 32 33 35 36
12 12 11 10 10 10 9 8 8 8 8 8 8 10 11 11 11 10 10 11 11 12 13 14 16 17 17 18 19 19 19 19 19 20 21 21 22 22 22 23 23 24 25 26 27 28 28 29 30 30 31 31 31 31 31 31 31 31 32 33 33 34
11 11 10 9 9 9 8 8 7 7 7 8 9 11 11 12 11 10 11 12 13 13 14 15 17 18 18 19 19 20 20 20 20 21 21 21 21 22 22 23 23 24 24 25 25 26 27 28 28 29 30 30 30 31 31 31 31 32 32 33 33 33
9 9 8 8 7 7 7 7 8 8 8 10 11 12 13 14 13 12 11 12 14 15 15 16 18 19 19 19 20 21 21 21 22 22 22 22 22 23 23 24 24 24 25 25 26 26 26 27 27 28 28 28 29 29 30 31 31 31 33 34 33 31
8 8 7 6 6 7 7 8 9 10 10 12 13 14 15 15 15 14 13 13 14 16 17 17 18 20 20 20 21 22 22 22 23 23 23 23 23 24 24 25 25 25 25 26 26 26 27 27 27 28 28 28 28 28 29 29 30 30 32 33 33 31
7 7 7 6 7 8 8 9 10 11 12 13 14 16 17 17 17 16 15 15 16 18 19 19 19 19 20 21 21 21 22 23 24 24 24 24 24 25 25 25 25 25 25 26 26 26 27 27 27 28 28 28 28 29 29 29 29 28 28 30 31 31
7 8 8 8 8 8 9 10 11 12 13 14 15 17 18 19 19 19 17 17 18 19 20 20 20 20 20 20 21 21 22 24 25 25 25 24 24 24 25 25 25 25 25 25 26 26 26 27 27 27 28 28 29 29 29 29 28 27 26 28 28 27
8 9 9 9 9 10 10 11 12 13 14 15 16 17 18 19 19 19 18 17 17 18 20 21 21 20 19 19 20 20 21 23 25 25 25 24 24 24 24 24 24 24 24 25 25 25 26 26 27 27 28 29 28 27 26 26 25 24 24 25 25 24
10 10 11 12 12 12 13 13 14 14 15 15 16 16 17 18 18 18 17 17 17 18 19 20 20 19 18 18 19 20 22 23 24 24 24 23 23 22 22 22 23 23 23 24 24 25 25 26 27 28 28 26 25 23 22 21 21 20 20 21 22 22
13 14 15 15 15 15 16 16 16 16 16 16 16 16 16 17 17 17 17 17 17 18 19 19 19 18 18 18 20 21 22 23 23 23 22 22 21 20 20 21 21 22 22 22 23 24 25 26 27 26 24 21 20 19 18 17 16 16 15 16 17 18
Wind_Direction
317 321 320 308 287 268 253 255 250 219 196 197 209 225 230 232 228 235 244 234 224 221 221 220 222 228 233 238 244 248 250 252 254 256 256 257 259 261 263 264 264 264 263 262 260 258 257 257 257 257 255 255 257 259 259 258 257 257 258 259 262 265
312 315 315 308 295 279 259 242 230 216 197 202 225 226 218 224 225 223 239 238 234 236 226 220 223 231 240 244 248 252 254 257 258 259 259 260 261 262 263 265 265 265 264 264 263 262 261 260 261 261 261 261 263 265 266 265 264 263 262 262 263 264
304 303 300 297 291 280 263 244 226 218 218 223 231 233 223 218 218 215 219 233 242 240 225 218 221 227 238 246 251 254 256 258 259 260 260 261 263 264 264 265 266 265 264 264 264 264 263 262 262 262 264 265 267 269 270 270 269 267 266 264 264 263
295 292 287 286 285 278 267 250 225 209 222 241 240 242 232 213 211 218 218 226 228 217 210 212 214 220 232 242 249 253 253 253 254 257 258 260 264 267 268 268 269 269 268 268 267 267 266 265 263 261 262 263 264 266 267 268 268 268 266 265 263 262
289 289 283 282 281 272 261 255 237 211 209 230 240 248 240 216 207 214 217 218 209 194 192 197 200 210 223 233 242 247 247 248 249 252 255 256 261 268 272 272 273 274 275 274 273 271 268 266 263 260 260 260 261 262 264 266 268 268 268 266 264 264
299 293 286 282 278 258 245 246 239 227 220 220 227 246 245 222 210 211 212 209 195 180 177 179 189 207 218 224 232 240 241 243 243 245 248 250 253 262 271 276 280 283 284 282 278 273 270 268 266 262 260 260 260 261 263 265 267 267 267 266 266 267
324 307 293 285 277 252 227 219 216 225 221 205 215 249 243 219 213 214 209 197 180 170 166 171 192 208 213 210 212 222 226 230 233 236 240 244 245 247 255 266 275 282 288 288 282 273 269 269 268 266 263 262 261 262 263 262 262 264 265 265 264 264
89 67 37 3 308 190 166 164 156 157 176 184 229 246 230 209 208 209 200 184 173 168 168 178 193 199 202 202 204 213 223 231 237 240 244 249 252 249 247 249 254 259 266 275 280 275 266 261 262 262 260 260 260 259 258 258 259 261 266 269 266 262
118 49 42 48 76 135 150 146 140 149 161 182 241 224 206 195 190 186 181 176 172 173 176 183 188 189 193 199 206 214 225 235 243 249 254 257 258 255 252 249 249 250 253 257 263 267 262 254 253 254 253 253 254 254 253 254 256 260 267 270 267 262
237 308 19 70 81 107 146 149 142 149 151 157 193 182 171 164 157 156 163 170 179 184 185 184 183 184 187 195 205 214 223 231 239 246 251 254 256 256 254 252 252 253 253 255 259 261 259 254 248 247 249 250 254 255 253 251 252 257 262 263 261 259
218 224 182 121 100 96 109 127 131 132 129 128 140 140 138 140 139 146 159 168 180 184 185 186 186 190 196 205 214 218 224 228 233 238 243 248 253 255 255 253 253 254 255 256 256 256 255 254 251 248 247 249 254 256 254 252 253 256 257 255 254 254
207 191 178 156 138 116 109 109 110 118 124 129 133 131 134 141 146 156 166 174 185 193 198 201 202 206 210 217 221 222 225 228 230 234 237 242 247 251 254 254 254 254 255 255 254 252 250 248 248 248 246 245 248 251 254 256 257 259 260 258 255 254
206 186 184 169 156 136 122 118 114 117 126 133 138 137 137 144 150 160 174 186 199 211 211 208 209 211 213 218 224 228 231 233 234 234 236 238 242 245 248 250 252 252 252 252 252 252 250 246 244 243 242 242 244 248 252 257 258 258 259 258 256 255
209 198 189 177 165 144 133 133 131 129 133 139 144 145 143 145 148 157 171 183 194 200 199 199 203 209 217 224 229 233 236 238 239 238 238 238 239 241 242 244 246 247 248 249 249 250 250 249 247 246 244 243 244 246 249 252 254 253 251 250 250 251
207 208 198 183 175 159 145 143 142 141 144 149 153 154 155 160 164 171 180 190 197 200 202 205 209 216 224 229 231 235 238 241 243 243 242 242 241 241 240 239 241 242 244 245 246 246 247 248 248 249 249 247 246 247 248 249 250 249 247 248 248 248
205 206 199 186 178 169 160 152 149 151 153 158 164 166 172 180 185 189 192 200 208 211 214 216 218 222 227 230 233 236 239 242 244 246 247 247 248 246 244 242 240 240 241 243 244 244 244 245 246 248 248 247 246 248 250 250 251 250 249 248 248 247
204 201 195 188 184 180 174 165 160 161 164 169 175 182 187 191 196 200 203 208 214 217 218 219 219 221 225 230 234 237 241 243 245 246 248 249 250 251 250 248 246 243 242 243 244 245 245 245 245 246 247 248 248 249 251 252 252 252 251 250 249 249
204 199 193 188 188 188 185 180 176 178 183 188 195 201 203 201 201 203 207 213 218 221 221 223 225 228 233 238 241 243 246 248 249 249 250 251 252 253 254 253 252 250 249 249 249 249 248 248 249 248 247 248 249 250 251 252 252 252 251 251 251 251
205 200 193 187 186 189 191 192 191 192 199 206 209 212 214 212 210 211 214 221 227 229 231 233 235 238 242 246 250 252 253 255 256 255 255 254 255 256 257 257 256 255 255 256 255 254 253 253 254 253 250 249 250 250 251 251 251 251 251 250 250 250
206 202 195 188 186 189 197 208 213 211 212 217 219 219 220 220 219 221 225 230 235 238 243 247 249 250 252 254 256 257 258 259 260 261 261 260 260 260 260 260 259 258 258 258 258 258 256 256 257 256 253 252 251 251 251 251 251 251 251 250 250 250
210 207 201 194 191 191 199 217 232 235 229 228 230 227 225 224 223 226 232 236 240 244 250 255 259 262 264 264 264 264 264 264 264 264 264 265 266 266 265 265 264 263 261 260 260 259 258 258 259 257 255 254 254 253 253 253 252 252 252 252 252 252
216 212 206 200 197 197 206 223 237 243 240 239 241 239 235 231 229 231 236 240 244 247 252 257 261 264 265 266 266 266 266 266 266 267 267 268 269 270 271 271 271 269 267 265 263 262 261 261 262 261 259 257 256 256 256 256 256 255 255 254 254 254
226 220 211 207 206 208 216 229 238 243 246 248 250 252 249 244 241 242 245 247 250 252 254 256 257 258 259 258 257 258 259 261 264 266 267 268 268 269 270 272 273 273 273 272 269 267 266 265 265 265 264 261 259 259 259 259 259 259 259 258 257 256
236 237 231 226 220 217 222 231 239 244 249 252 255 256 257 254 251 251 254 256 257 260 260 258 255 252 251 251 252 254 256 259 262 264 266 268 269 269 270 270 272 273 275 275 274 273 272 270 269 269 269 267 264 261 261 261 261 261 261 261 261 261
243 253 257 248 234 228 229 235 240 245 249 252 254 255 256 257 256 256 258 260 261 263 262 260 256 253 253 255 258 260 263 265 266 268 269 270 270 270 271 271 271 272 273 274 275 275 275 275 274 274 274 273 271 267 264 263 263 263 263 263 264 264
250 258 262 254 245 240 240 243 248 251 252 252 254 255 257 260 261 260 260 261 261 261 261 262 262 262 263 264 266 267 268 270 271 271 272 273 273 273 273 273 273 273 273 273 274 275 276 276 276 276 276 276 276 275 272 268 266 264 264 264 264 264
257 262 261 256 252 250 250 253 257 259 260 258 259 263 265 264 262 260 258 258 258 258 261 265 265 265 266 266 267 267 268 269 270 270 271 271 272 272 273 273 274 274 274 274 275 275 276 277 278 278 278 277 278 278 277 275 272 269 266 265 264 264
264 263 261 258 257 258 259 260 261 264 265 265 268 269 268 264 261 261 263 265 267 268 270 272 273 273 272 272 271 271 270 270 270 270 270 269 270 270 271 271 272 273 273 273 273 273 274 275 276 278 279 280 281 280 280 279 277 275 272 269 267 265
263 260 258 259 263 265 265 263 262 262 266 272 273 271 269 269 270 274 281 286 288 287 285 284 283 282 281 280 279 277 276 274 272 271 270 270 270 271 271 271 270 270 270 270 270 270 271 271 272 274 276 278 280 281 281 281 280 279 277 274 272 270
258 257 258 262 266 267 267 266 265 268 276 282 281 279 279 280 282 288 294 299 299 297 294 291 288 285 284 283 282 281 280 279 277 275 274 274 274 275 276 276 276 276 275 275 274 274 274 274 274 274 275 275 276 278 279 280 281 281 279 276 274 274
253 256 259 264 268 271 277 281 285 290 294 295 293 292 291 289 289 291 294 298 299 297 294 291 288 287 287 286 286 286 285 284 282 280 280 280 280 280 281 281 282 283 283 283 283 283 283 282 282 281 280 278 277 277 278 279 280 280 280 279 277 276
252 257 261 268 276 281 286 290 295 301 302 302 301 298 295 292 291 290 292 294 295 294 292 289 287 287 290 291 291 290 289 286 283 282 282 283 283 282 283 283 284 285 286 287 287 288 288 288 287 285 284 283 282 281 280 280 280 280 280 279 278 277
251 257 262 268 274 279 285 292 298 302 303 302 301 297 294 292 291 291 292 293 294 294 293 292 289 288 290 291 291 290 288 285 283 282 282 282 282 282 283 284 285 286 287 288 289 290 290 290 289 288 287 286 286 284 283 281 280 279 276 274 274 275
252 259 265 269 275 283 290 295 296 297 298 299 299 298 294 291 289 289 290 291 293 294 294 293 293 291 290 290 289 288 285 283 282 281 280 280 280 281 282 284 286 287 289 290 291 292 293 292 291 290 289 289 288 286 284 281 278 274 271 270 270 270
260 265 269 273 279 286 290 292 292 292 293 296 298 299 296 291 288 286 287 289 291 293 293 293 293 293 291 289 287 285 282 280 280 280 279 278 279 280 283 285 287 288 290 291 293 295 295 294 293 293 292 292 290 287 283 279 275 271 268 269 268 265
270 272 274 277 283 288 291 291 290 291 294 297 298 297 296 292 288 287 288 290 293 294 292 293 293 293 290 286 283 281 282 282 282 281 279 277 278 280 284 286 287 289 291 293 295 297 296 296 296 296 295 293 291 288 285 279 274 269 265 266 266 265
280 279 281 284 289 291 290 289 290 292 295 297 298 297 295 292 289 289 290 292 295 295 293 294 294 290 285 281 281 284 288 290 288 283 278 276 277 281 284 286 288 290 293 296 297 298 298 298 298 298 297 296 294 291 288 282 275 268 263 261 261 262
Height
5802 5802 5802 5803 5803 5804 5804 5803 5803 5804 5804 5805 5806 5807 5806 5805 5807 5809 5809 5810 5810 5810 5811 5812 5813 5814 5815 5816 5816 5817 5818 5819 5820 5821 5822 5824 5825 5825 5826 5827 5827 5828 5828 5829 5829 5830 5830 5829 5829 5830 5830 5831 5830 5830 5830 5831 5831 5831 5832 5832 5833 5833
5803 5803 5802 5803 5803 5803 5803 5803 5803 5804 5804 5805 5806 5805 5805 5805 5806 5807 5808 5809 5809 5810 5811 5812 5813 5814 5815 5816 5816 5817 5818 5819 5820 5821 5821 5822 5823 5824 5825 5826 5827 5827 5827 5827 5828 5828 5828 5828 5828 5828 5828 5829 5829 5828 5828 5829 5830 5830 5830 5831 5832 5832
5804 5803 5803 5802 5802 5802 5802 5803 5803 5804 5804 5805 5805 5805 5804 5805 5805 5806 5807 5808 5809 5810 5810 5811 5812 5813 5814 5815 5816 5817 5818 5819 5819 5820 5821 5821 5822 5823 5824 5825 5825 5826 5826 5826 5826 5827 5827 5827 5827 5827 5826 5827 5827 5827 5828 5828 5828 5829 5829 5830 5830 5830
5803 5803 5802 5801 5801 5801 5801 5801 5802 5803 5803 5804 5805 5804 5805 5804 5805 5806 5807 5808 5809 5809 5810 5811 5812 5813 5814 5815 5816 5817 5818 5818 5819 5819 5820 5820 5821 5822 5823 5823 5824 5824 5824 5825 5825 5826 5826 5826 5826 5826 5825 5826 5826 5827 5827 5827 5827 5828 5828 5829 5829 5829
5803 5802 5802 5801 5800 5800 5800 5800 5801 5801 5802 5803 5804 5804 5804 5805 5805 5806 5807 5808 5808 5809 5809 5811 5812 5813 5814 5815 5816 5816 5817 5818 5818 5819 5819 5819 5820 5821 5821 5822 5822 5823 5823 5823 5824 5824 5824 5825 5825 5825 5825 5825 5825 5826 5826 5826 5826 5827 5827 5827 5827 5827
5803 5802 5801 5801 5800 5799 5799 5799 5800 5801 5801 5802 5803 5804 5804 5805 5805 5806 5807 5808 5808 5809 5810 5811 5812 5813 5814 5815 5815 5816 5817 5817 5817 5818 5818 5818 5819 5820 5820 5821 5821 5822 5822 5822 5822 5823 5823 5823 5823 5823 5823 5823 5824 5824 5824 5825 5825 5825 5825 5825 5826 5826
5803 5802 5802 5801 5800 5799 5798 5798 5799 5800 5801 5802 5803 5804 5804 5805 5806 5806 5807 5807 5808 5809 5810 5811 5812 5813 5814 5814 5815 5816 5816 5817 5817 5818 5818 5818 5818 5819 5819 5820 5820 5821 5821 5821 5821 5821 5821 5821 5821 5822 5822 5822 5822 5822 5823 5823 5824 5824 5824 5824 5824 5824
5803 5803 5802 5801 5800 5799 5798 5799 5799 5800 5801 5802 5803 5803 5804 5805 5805 5806 5807 5808 5808 5809 5810 5811 5812 5813 5813 5814 5815 5816 5816 5817 5817 5818 5818 5818 5818 5818 5819 5819 5819 5819 5819 5820 5820 5819 5819 5820 5820 5820 5820 5820 5820 5821 5822 5822 5822 5822 5823 5823 5823 5823
5803 5803 5802 5802 5800 5800 5799 5799 5799 5800 5801 5802 5802 5803 5804 5804 5805 5806 5807 5808 5809 5809 5810 5811 5811 5812 5813 5814 5815 5815 5816 5816 5817 5817 5817 5817 5817 5818 5818 5818 5819 5818 5818 5818 5818 5818 5818 5818 5818 5819 5819 5819 5819 5819 5820 5820 5820 5820 5821 5821 5821 5821
5804 5803 5803 5802 5801 5800 5799 5799 5799 5800 5801 5801 5802 5803 5804 5804 5805 5806 5807 5808 5809 5809 5810 5810 5811 5812 5813 5813 5814 5814 5814 5815 5816 5816 5816 5816 5816 5817 5818 5818 5818 5818 5818 5818 5817 5818 5818 5817 5817 5817 5818 5817 5817 5817 5817 5818 5817 5818 5818 5819 5819 5820
5804 5803 5803 5802 5801 5800 5799 5799 5800 5800 5800 5801 5803 5804 5804 5805 5806 5807 5808 5808 5809 5809 5810 5810 5811 5811 5812 5813 5813 5813 5813 5814 5814 5815 5815 5815 5815 5816 5816 5817 5817 5817 5817 5817 5817 5816 5816 5816 5816 5816 5816 5816 5815 5815 5815 5816 5816 5816 5817 5817 5817 5818
5803 5803 5803 5802 5801 5800 5800 5800 5800 5800 5800 5801 5803 5804 5805 5806 5807 5808 5808 5809 5809 5810 5810 5810 5811 5811 5812 5812 5812 5812 5812 5813 5813 5813 5813 5813 5814 5814 5815 5815 5815 5816 5816 5816 5816 5815 5815 5815 5815 5815 5814 5814 5814 5814 5814 5814 5815 5815 5816 5816 5816 5816
5802 5803 5803 5802 5801 5800 5800 5800 5801 5801 5801 5802 5803 5804 5805 5806 5807 5808 5809 5809 5809 5810 5810 5810 5810 5811 5811 5811 5811 5811 5812 5812 5812 5812 5812 5812 5812 5813 5813 5813 5814 5814 5814 5814 5814 5814 5814 5813 5813 5813 5812 5812 5812 5812 5813 5813 5813 5814 5814 5815 5815 5814
5802 5802 5802 5802 5802 5801 5801 5800 5801 5801 5802 5803 5803 5804 5805 5806 5807 5807 5808 5809 5809 5809 5809 5809 5809 5810 5810 5810 5810 5810 5811 5811 5811 5811 5811 5811 5811 5812 5812 5812 5812 5812 5812 5812 5812 5812 5812 5812 5811 5811 5810 5810 5810 5810 5810 5811 5811 5812 5812 5812 5812 5812
5802 5802 5802 5802 5802 5802 5802 5801 5801 5801 5802 5802 5803 5804 5804 5805 5806 5806 5807 5808 5808 5808 5808 5808 5809 5809 5809 5809 5810 5810 5809 5809 5809 5809 5809 5810 5810 5810 5810 5810 5810 5810 5810 5810 5810 5810 5810 5809 5809 5809 5809 5809 5809 5809 5808 5809 5809 5810 5810 5810 5810 5810
5801 5802 5802 5802 5802 5802 5802 5802 5801 5801 5802 5802 5803 5803 5804 5804 5804 5805 5806 5806 5807 5807 5807 5808 5808 5808 5808 5808 5808 5809 5808 5808 5808 5808 5808 5808 5808 5808 5808 5808 5809 5809 5809 5808 5808 5808 5807 5807 5806 5807 5807 5808 5807 5807 5807 5807 5807 5808 5808 5808 5808 5808
5801 5801 5801 5801 5802 5802 5802 5802 5802 5802 5802 5802 5802 5803 5803 5803 5804 5804 5804 5805 5805 5806 5806 5807 5807 5807 5807 5807 5807 5807 5807 5807 5807 5807 5806 5806 5806 5806 5806 5806 5806 5807 5807 5806 5806 5806 5806 5805 5804 5805 5805 5806 5806 5805 5805 5805 5805 5806 5806 5806 5806 5805
5801 5800 5800 5801 5801 5801 5801 5802 5802 5802 5802 5802 5802 5802 5802 5802 5803 5803 5804 5804 5804 5805 5805 5805 5806 5806 5806 5806 5806 5806 5806 5805 5805 5805 5805 5805 5804 5804 5804 5804 5804 5804 5804 5804 5804 5804 5803 5803 5802 5803 5804 5804 5804 5803 5803 5803 5803 5803 5804 5803 5803 5803
5800 5800 5800 5800 5800 5800 5801 5801 5802 5802 5802 5801 5801 5801 5801 5802 5802 5803 5803 5803 5803 5803 5803 5804 5804 5804 5804 5804 5804 5804 5804 5804 5804 5804 5804 5803 5803 5803 5803 5802 5802 5802 5802 5802 5802 5801 5801 5800 5800 5801 5801 5802 5802 5801 5801 5801 5801 5801 5801 5801 5800 5800
5800 5799 5799 5799 5799 5800 5800 5801 5801 5801 5801 5801 5801 5801 5801 5801 5801 5801 5801 5801 5801 5801 5802 5802 5802 5802 5802 5802 5802 5802 5802 5802 5802 5802 5802 5802 5801 5801 5801 5801 5801 5801 5800 5800 5799 5799 5798 5797 5797 5798 5799 5799 5799 5799 5798 5798 5798 5798 5798 5798 5797 5797
5799 5799 5799 5798 5798 5798 5799 5799 5800 5800 5800 5800 5799 5800 5800 5800 5800 5800 5800 5799 5799 5800 5800 5800 5800 5800 5800 5800 5800 5800 5800 5800 5799 5799 5799 5799 5799 5799 5799 5799 5799 5798 5798 5798 5797 5797 5796 5795 5795 5796 5796 5796 5796 5796 5795 5795 5795 5794 5794 5794 5794 5794
5798 5798 5798 5798 5797 5797 5798 5798 5798 5799 5799 5799 5799 5799 5799 5799 5800 5799 5799 5799 5799 5799 5799 5799 5798 5798 5798 5798 5798 5797 5797 5797 5797 5797 5797 5797 5796 5796 5796 5796 5795 5795 5795 5795 5795 5794 5794 5793 5792 5792 5793 5793 5793 5792 5792 5792 5791 5791 5791 5791 5791 5791
5796 5797 5797 5797 5797 5797 5797 5797 5797 5797 5798 5798 5798 5798 5798 5798 5798 5798 5798 5798 5798 5798 5798 5798 5797 5797 5797 5796 5796 5796 5796 5796 5796 5795 5795 5794 5794 5794 5793 5793 5793 5792 5792 5792 5791 5791 5790 5790 5789 5789 5790 5790 5790 5790 5789 5789 5789 5788 5788 5788 5788 5788
5795 5796 5796 5796 5796 5796 5796 5796 5796 5796 5796 5797 5797 5797 5797 5797 5797 5796 5796 5796 5796 5797 5796 5796 5796 5796 5795 5795 5795 5795 5795 5795 5794 5794 5793 5793 5792 5791 5791 5791 5790 5790 5789 5789 5788 5788 5787 5787 5786 5785 5785 5786 5786 5787 5786 5786 5786 5785 5785 5785 5785 5784
5793 5794 5794 5795 5795 5795 5795 5795 5795 5795 5795 5796 5796 5796 5796 5796 5795 5795 5795 5795 5795 5795 5795 5795 5795 5795 5794 5794 5794 5794 5793 5793 5792 5792 5791 5790 5790 5789 5788 5788 5787 5787 5786 5786 5785 5784 5784 5783 5783 5782 5781 5781 5782 5782 5783 5783 5782 5782 5782 5782 5781 5781
5792 5793 5793 5793 5794 5794 5794 5794 5794 5794 5794 5795 5795 5795 5795 5794 5794 5794 5794 5794 5794 5794 5794 5794 5794 5794 5793 5793 5792 5792 5791 5791 5790 5789 5789 5788 5787 5786 5785 5785 5784 5784 5783 5783 5782 5782 5781 5780 5779 5779 5778 5778 5778 5778 5779 5779 5779 5779 5779 5779 5778 5778
5791 5792 5792 5792 5793 5793 5793 5793 5793 5793 5793 5793 5793 5793 5793 5793 5793 5793 5793 5793 5793 5793 5793 5793 5793 5792 5792 5791 5791 5790 5789 5789 5788 5787 5786 5785 5784 5784 5783 5782 5782 5781 5781 5780 5779 5779 5778 5777 5776 5775 5775 5775 5775 5775 5775 5775 5775 5775 5775 5775 5774 5774
5790 5791 5791 5792 5792 5791 5791 5791 5791 5791 5791 5791 5791 5791 5792 5792 5792 5792 5792 5792 5792 5792 5792 5791 5791 5790 5790 5789 5788 5788 5787 5786 5785 5785 5784 5783 5782 5781 5781 5780 5779 5779 5778 5777 5776 5775 5774 5774 5773 5772 5772 5772 5771 5771 5771 5771 5771 5771 5771 5771 5770 5770
5790 5790 5791 5791 5791 5791 5790 5790 5790 5790 5790 5790 5790 5790 5790 5790 5790 5790 5790 5790 5790 5790 5789 5789 5788 5787 5787 5786 5786 5785 5784 5783 5782 5781 5781 5780 5779 5779 5778 5777 5777 5776 5775 5774 5774 5773 5772 5771 5770 5769 5769 5769 5769 5768 5767 5767 5767 5767 5766 5766 5766 5766
5789 5790 5790 5790 5790 5790 5789 5789 5789 5789 5789 5788 5788 5788 5788 5787 5787 5787 5787 5787 5787 5787 5787 5786 5785 5784 5784 5783 5782 5782 5781 5780 5779 5778 5777 5777 5776 5775 5775 5774 5773 5773 5772 5771 5770 5770 5769 5768 5767 5767 5766 5766 5766 5765 5764 5764 5764 5764 5763 5761 5762 5762
5789 5789 5789 5789 5789 5789 5788 5788 5788 5787 5787 5787 5787 5786 5786 5785 5785 5784 5785 5785 5785 5784 5784 5783 5782 5781 5780 5780 5779 5778 5778 5777 5775 5774 5774 5773 5773 5772 5771 5770 5770 5769 5768 5768 5767 5766 5765 5765 5764 5763 5763 5763 5763 5762 5762 5761 5761 5761 5759 5758 5758 5759
5788 5788 5788 5788 5788 5787 5787 5786 5786 5785 5785 5785 5784 5784 5784 5783 5782 5782 5782 5782 5782 5782 5781 5781 5780 5778 5777 5777 5776 5776 5775 5774 5772 5771 5771 5770 5769 5768 5768 5767 5767 5766 5765 5765 5764 5763 5762 5761 5760 5760 5759 5759 5759 5759 5759 5758 5758 5758 5756 5755 5754 5755
5787 5787 5787 5786 5786 5786 5786 5785 5784 5784 5784 5783 5783 5782 5782 5781 5781 5780 5780 5780 5780 5779 5778 5778 5777 5776 5775 5775 5774 5773 5772 5771 5769 5769 5768 5767 5766 5766 5765 5764 5764 5763 5763 5762 5761 5760 5759 5758 5757 5756 5755 5755 5755 5755 5754 5754 5754 5754 5753 5751 5751 5752
5786 5786 5785 5785 5785 5784 5784 5783 5783 5783 5782 5782 5781 5781 5780 5779 5779 5779 5778 5778 5778 5777 5776 5775 5775 5774 5774 5773 5772 5771 5770 5768 5767 5766 5766 5765 5764 5763 5762 5762 5761 5761 5760 5759 5758 5757 5756 5755 5753 5752 5752 5751 5751 5750 5750 5749 5750 5750 5749 5748 5748 5750
5785 5784 5784 5783 5783 5782 5782 5782 5781 5781 5781 5780 5780 5779 5779 5778 5777 5777 5777 5776 5776 5775 5774 5773 5772 5772 5772 5771 5769 5768 5767 5766 5765 5764 5763 5762 5761 5760 5760 5759 5759 5758 5757 5756 5755 5754 5753 5751 5750 5749 5748 5747 5746 5746 5745 5745 5745 5746 5746 5745 5745 5746
5783 5783 5782 5781 5781 5780 5780 5780 5780 5779 5779 5779 5779 5778 5777 5776 5776 5775 5775 5775 5774 5773 5772 5771 5770 5770 5769 5768 5767 5766 5765 5764 5762 5761 5760 5759 5759 5758 5758 5757 5756 5755 5755 5754 5753 5751 5750 5748 5747 5745 5744 5743 5742 5742 5742 5741 5741 5742 5742 5742 5742 5743
5782 5781 5780 5780 5779 5779 5778 5778 5778 5778 5778 5777 5777 5776 5776 5775 5774 5774 5773 5773 5772 5771 5770 5769 5769 5768 5767 5766 5765 5764 5763 5761 5760 5758 5757 5756 5756 5756 5756 5755 5754 5753 5752 5751 5750 5749 5747 5745 5744 5742 5741 5740 5739 5739 5738 5738 5738 5738 5739 5740 5740 5740